Weather History for KD50 - March, 2013

Change the Weather History Date:

Monday, March 11, 2013

  Actual Average (KISN) Record (KISN)
Temperature  
Mean Temperature 22 °F 27 °F  
Max Temperature 26 °F 37 °F 71 °F (1990)
Min Temperature 17 °F 16 °F -28 °F (1998)
Degree Days  
Heating Degree Days 44 38  
Month to date heating degree days 446  
Since 1 July heating degree days 7214  
Cooling Degree Days 0 0  
Month to date cooling degree days 0  
Year to date cooling degree days 0  
Moisture  
Dew Point 19 °F    
Average Humidity 87    
Maximum Humidity 100    
Minimum Humidity 74    
Precipitation  
Precipitation 1.18 in 0.02 in 0.58 in (1986)
Month to date precipitation 0.23  
Year to date precipitation 1.21  
Sea Level Pressure  
Sea Level Pressure 29.87 in    
Wind  
Wind Speed 19 mph (WNW)    
Max Wind Speed 36 mph    
Max Gust Speed 45 mph    
Visibility 7 miles    
Events Rain , Snow    
T = Trace of Precipitation, MM = Missing Value Source: NWS Daily Summary

Daily Weather History Graph

Daily Weather History Graph

Search for Another Location

Airport or City:

Trip Planner

Search our weather history database for the weather conditions in past years. The results will help you decide how hot, cold, wet, or windy it might be!

Date:

Astronomy

Mar. 11, 2013 Rise Set
Actual Time 8:14 AM CDT 7:52 PM CDT
Civil Twilight 7:42 AM CDT 8:24 PM CDT
Nautical Twilight 7:06 AM CDT 9:01 PM CDT
Astronomical Twilight 6:28 AM CDT 9:38 PM CDT
Moon 7:46 AM CDT (3/11) 8:12 PM CDT (3/11)
Length of Visible Light 12h 41m
Length of Day
11h 38m
Waning Crescent, 0% of the Moon is Illuminated
Mar 11
Waning Crescent
Mar 11
New
Mar 19
First Quarter
Mar 27
Full
Apr 2
Last Quarter

Hourly Weather History & Observations

Time (CDT) Temp. Windchill Dew Point Humidity Pressure Visibility Wind Dir Wind Speed Gust Speed Precip Events Conditions
12:15 AM 19.4 °F 7.9 °F 14.0 °F 80% 29.90 in 10.0 mi South 10.4 mph - N/A   Clear
12:35 AM 19.4 °F 6.6 °F 15.8 °F 86% 29.89 in 10.0 mi SSW 12.7 mph - N/A   Clear
12:55 AM 19.4 °F 5.0 °F 15.8 °F 86% 29.87 in 10.0 mi SSW 16.1 mph - N/A   Clear
1:15 AM 21.2 °F 7.8 °F 15.8 °F 80% 29.86 in 10.0 mi South 15.0 mph - N/A   Scattered Clouds
1:55 AM 19.4 °F 7.2 °F 15.8 °F 86% 29.84 in 10.0 mi South 11.5 mph - N/A   Clear
2:15 AM 21.2 °F 8.3 °F 15.8 °F 80% 29.83 in 10.0 mi South 13.8 mph - N/A   Scattered Clouds
2:35 AM 21.2 °F 8.9 °F 15.8 °F 80% 29.82 in 10.0 mi South 12.7 mph - N/A   Overcast
2:55 AM 23.0 °F 9.6 °F 17.6 °F 80% 29.80 in 10.0 mi South 16.1 mph - N/A   Overcast
3:15 AM 23.0 °F 10.1 °F 17.6 °F 80% 29.80 in 10.0 mi South 15.0 mph - N/A   Overcast
3:35 AM 23.0 °F 9.2 °F 17.6 °F 80% 29.79 in 10.0 mi SSW 17.3 mph - N/A   Overcast
3:55 AM 23.0 °F 9.2 °F 19.4 °F 86% 29.78 in 10.0 mi SSW 17.3 mph - N/A   Overcast
4:15 AM 23.0 °F 8.7 °F 19.4 °F 86% 29.77 in 10.0 mi SSW 18.4 mph - N/A   Overcast
4:35 AM 23.0 °F 9.6 °F 19.4 °F 86% 29.77 in 10.0 mi SSW 16.1 mph - N/A   Overcast
4:55 AM 23.0 °F 9.2 °F 19.4 °F 86% 29.76 in 10.0 mi SSW 17.3 mph - N/A   Overcast
5:15 AM 23.0 °F 10.6 °F 17.6 °F 80% 29.77 in 10.0 mi SSW 13.8 mph - N/A   Scattered Clouds
5:35 AM 19.4 °F 6.6 °F 17.6 °F 93% 29.76 in 10.0 mi SSW 12.7 mph - N/A   Clear
5:55 AM 19.4 °F 7.9 °F 15.8 °F 86% 29.76 in 10.0 mi SW 10.4 mph - N/A   Clear
6:15 AM 17.6 °F 3.2 °F 15.8 °F 93% 29.78 in 10.0 mi SW 15.0 mph - N/A   Clear
6:35 AM 23.0 °F 9.2 °F 17.6 °F 80% 29.78 in 10.0 mi WNW 17.3 mph - N/A   Clear
6:55 AM 19.4 °F 4.5 °F 17.6 °F 93% 29.79 in 10.0 mi WNW 17.3 mph - N/A   Clear
7:15 AM 19.4 °F 3.6 °F 15.8 °F 86% 29.80 in 10.0 mi WNW 19.6 mph - N/A   Partly Cloudy
7:35 AM 17.6 °F 3.7 °F 15.8 °F 93% 29.80 in 10.0 mi WNW 13.8 mph - N/A   Clear
7:55 AM 17.6 °F 1.7 °F 14.0 °F 86% 29.81 in 10.0 mi NW 18.4 mph - N/A   Clear
8:15 AM 17.6 °F 0.1 °F 15.8 °F 93% 29.80 in 9.0 mi NW 23.0 mph - N/A   Clear
8:35 AM 19.4 °F 2.1 °F 15.8 °F 86% 29.81 in 8.0 mi NW 24.2 mph - N/A   Clear
8:55 AM 19.4 °F 2.1 °F 15.8 °F 86% 29.83 in 7.0 mi WNW 24.2 mph - N/A   Clear
9:15 AM 19.4 °F 2.1 °F 15.8 °F 86% 29.84 in 8.0 mi WNW 24.2 mph 28.8 mph N/A   Clear
9:35 AM 19.4 °F 4.1 °F 15.8 °F 86% 29.84 in 10.0 mi WNW 18.4 mph - N/A   Scattered Clouds
9:55 AM 23.0 °F 8.0 °F 19.4 °F 86% 29.84 in 10.0 mi NW 20.7 mph - N/A   Overcast
10:15 AM 24.8 °F 9.6 °F 23.0 °F 93% 29.85 in 9.0 mi NW 23.0 mph - N/A   Overcast
10:35 AM 26.6 °F 13.1 °F 23.0 °F 86% 29.86 in 10.0 mi WNW 19.6 mph - N/A   Overcast
10:55 AM 26.6 °F 13.1 °F 23.0 °F 86% 29.87 in 10.0 mi WNW 19.6 mph - N/A   Overcast
11:15 AM 24.8 °F 10.7 °F 23.0 °F 93% 29.87 in 10.0 mi WNW 19.6 mph - N/A   Overcast
11:35 AM 24.8 °F 10.0 °F 21.2 °F 86% 29.87 in 10.0 mi WNW 21.9 mph 26.5 mph N/A   Scattered Clouds
11:55 AM 24.8 °F 10.0 °F 19.4 °F 80% 29.87 in 10.0 mi WNW 21.9 mph - N/A   Mostly Cloudy
12:15 PM 24.8 °F 10.3 °F 19.4 °F 80% 29.88 in 10.0 mi WNW 20.7 mph 26.5 mph N/A   Partly Cloudy
12:35 PM 24.8 °F 11.5 °F 19.4 °F 80% 29.89 in 10.0 mi WNW 17.3 mph - N/A   Clear
12:55 PM 26.6 °F 12.7 °F 21.2 °F 80% 29.88 in 10.0 mi WNW 20.7 mph 25.3 mph N/A   Clear
1:15 PM 26.6 °F 13.1 °F 19.4 °F 74% 29.88 in 10.0 mi WNW 19.6 mph 25.3 mph N/A   Clear
1:35 PM 26.6 °F 13.8 °F 21.2 °F 80% 29.89 in 10.0 mi WNW 17.3 mph - N/A   Clear
1:55 PM 26.6 °F 13.4 °F 21.2 °F 80% 29.88 in 10.0 mi WNW 18.4 mph - N/A   Clear
2:15 PM 26.6 °F 12.4 °F 21.2 °F 80% 29.87 in 10.0 mi WNW 21.9 mph - N/A   Clear
2:35 PM 26.6 °F 12.0 °F 19.4 °F 74% 29.86 in 10.0 mi WNW 23.0 mph - N/A   Clear
2:55 PM 26.6 °F 11.7 °F 19.4 °F 74% 29.86 in 10.0 mi WNW 24.2 mph 31.1 mph N/A   Clear
3:15 PM 26.6 °F 11.4 °F 21.2 °F 80% 29.86 in 10.0 mi WNW 25.3 mph 28.8 mph N/A   Clear
3:35 PM 26.6 °F 11.1 °F 21.2 °F 80% 29.86 in 8.0 mi WNW 26.5 mph 32.2 mph N/A   Clear
3:55 PM 26.6 °F 11.4 °F 23.0 °F 86% 29.86 in 8.0 mi WNW 25.3 mph - N/A   Clear
4:15 PM 26.6 °F 12.0 °F 23.0 °F 86% 29.86 in 9.0 mi WNW 23.0 mph - N/A   Clear
4:35 PM 26.6 °F 11.4 °F 23.0 °F 86% 29.87 in 10.0 mi WNW 25.3 mph - N/A   Mostly Cloudy
4:55 PM 26.6 °F 12.0 °F 23.0 °F 86% 29.87 in 3.0 mi WNW 23.0 mph - N/A Rain Light Freezing Rain
5:15 PM 26.6 °F 11.7 °F 23.0 °F 86% 29.87 in 5.0 mi WNW 24.2 mph 28.8 mph N/A Rain Light Freezing Rain
5:35 PM 26.6 °F 11.7 °F 23.0 °F 86% 29.87 in 4.0 mi WNW 24.2 mph 28.8 mph N/A Rain Light Freezing Rain
5:55 PM 24.8 °F 9.6 °F 24.8 °F 100% 29.88 in 1.0 mi WNW 23.0 mph - 0.27 in Snow Light Snow
6:15 PM 24.8 °F 10.0 °F 24.8 °F 100% 29.88 in 1.5 mi WNW 21.9 mph 27.6 mph 0.10 in Snow Light Snow
6:35 PM 24.8 °F 9.0 °F 24.8 °F 100% 29.89 in 1.0 mi NW 25.3 mph - 0.19 in Snow Light Snow
6:55 PM 24.8 °F 9.6 °F 24.8 °F 100% 29.90 in 1.0 mi NW 23.0 mph - 0.25 in Snow Light Snow
7:15 PM 24.8 °F 8.4 °F 24.8 °F 100% 29.91 in 1.0 mi NW 27.6 mph 33.4 mph 0.06 in   Overcast
7:35 PM 23.0 °F 4.1 °F 23.0 °F 100% 29.93 in 0.2 mi NW 35.7 mph 41.4 mph 0.17 in Rain Light Freezing Rain
7:55 PM 23.0 °F 4.6 °F 23.0 °F 100% 29.94 in 0.2 mi NW 33.4 mph 42.6 mph 0.25 in Snow Heavy Snow
8:15 PM 23.0 °F 4.1 °F 21.2 °F 93% 29.95 in 0.2 mi NW 35.7 mph 44.9 mph 0.05 in Snow Heavy Snow
8:35 PM 21.2 °F 1.7 °F 19.4 °F 93% 29.97 in 0.5 mi NW 35.7 mph 42.6 mph 0.11 in Snow Snow
8:55 PM 21.2 °F 1.9 °F 19.4 °F 93% 29.98 in 0.8 mi NW 34.5 mph 42.6 mph 0.17 in Snow Light Snow
9:15 PM 19.4 °F -0.8 °F 19.4 °F 100% 29.99 in 0.5 mi NW 35.7 mph 43.7 mph 0.01 in Rain Light Freezing Rain
9:35 PM 19.4 °F 1.1 °F 17.6 °F 93% 30.01 in 0.8 mi NW 27.6 mph 38.0 mph 0.02 in Rain Light Freezing Rain
9:55 PM 19.4 °F -0.8 °F 17.6 °F 93% 30.01 in 0.5 mi NW 35.7 mph 43.7 mph 0.03 in Rain Light Freezing Rain
10:15 PM 19.4 °F -0.0 °F 17.6 °F 93% 30.03 in 0.8 mi NW 32.2 mph 42.6 mph N/A Rain Light Freezing Rain
10:35 PM 19.4 °F -0.0 °F 17.6 °F 93% 30.04 in 1.2 mi NW 32.2 mph 41.4 mph 0.01 in Snow Light Snow
10:55 PM 19.4 °F 0.5 °F 17.6 °F 93% 30.04 in 1.0 mi NW 29.9 mph 38.0 mph 0.08 in Snow Light Snow
11:15 PM 19.4 °F -0.3 °F 17.6 °F 93% 30.05 in 1.0 mi NW 33.4 mph 41.4 mph 0.01 in Snow Light Snow
11:35 PM 17.6 °F -1.9 °F 15.8 °F 93% 30.06 in 1.0 mi NW 29.9 mph 39.1 mph 0.11 in Snow Light Snow
11:55 PM 17.6 °F -1.9 °F 15.8 °F 93% 30.07 in 1.5 mi NW 29.9 mph 36.8 mph 0.13 in Snow Light Snow